TimeEDT,TemperatureF,Dew PointF,Humidity,Sea Level PressureIn,VisibilityMPH,Wind Direction,Wind SpeedMPH,Gust SpeedMPH,PrecipitationIn,Events,Conditions,WindDirDegrees,DateUTC
12:15 AM,62.6,60.8,94,29.97,4.0,North,3.5,-,N/A,,Overcast,350,2013-09-30 04:15:00
12:35 AM,62.6,60.8,94,29.97,3.0,Calm,Calm,-,N/A,,Overcast,0,2013-09-30 04:35:00
12:55 AM,62.6,60.8,94,29.97,2.5,NW,3.5,-,N/A,,Overcast,320,2013-09-30 04:55:00
1:15 AM,62.6,60.8,94,29.97,1.8,North,4.6,-,N/A,,Overcast,350,2013-09-30 05:15:00
1:35 AM,62.6,60.8,94,29.97,0.8,NNW,3.5,-,N/A,,Overcast,330,2013-09-30 05:35:00
1:55 AM,62.6,60.8,94,29.97,0.5,Calm,Calm,-,N/A,Fog,Fog,0,2013-09-30 05:55:00
2:15 AM,62.6,60.8,94,29.98,0.5,Calm,Calm,-,N/A,Fog,Fog,0,2013-09-30 06:15:00
2:36 AM,62.6,60.8,94,29.97,0.5,North,4.6,-,N/A,Fog,Fog,360,2013-09-30 06:36:00
2:56 AM,62.6,60.8,94,29.98,0.5,West,4.6,-,N/A,Fog,Fog,270,2013-09-30 06:56:00
3:16 AM,62.6,60.8,94,29.97,0.5,WNW,3.5,-,N/A,Fog,Fog,290,2013-09-30 07:16:00
3:36 AM,62.6,60.8,94,29.97,0.5,Calm,Calm,-,N/A,Fog,Fog,0,2013-09-30 07:36:00
3:56 AM,62.6,60.8,94,29.97,0.5,West,3.5,-,N/A,Fog,Fog,260,2013-09-30 07:56:00
4:16 AM,62.6,60.8,94,29.97,0.5,West,3.5,-,N/A,Fog,Fog,270,2013-09-30 08:16:00
4:36 AM,62.6,60.8,94,29.97,1.8,West,3.5,-,N/A,,Overcast,270,2013-09-30 08:36:00
4:56 AM,62.6,60.8,94,29.97,1.8,West,5.8,-,N/A,,Light Drizzle,270,2013-09-30 08:56:00
5:16 AM,60.8,60.8,100,29.97,2.5,West,3.5,-,N/A,,Overcast,280,2013-09-30 09:16:00
5:36 AM,60.8,60.8,100,29.97,3.0,WNW,4.6,-,N/A,,Overcast,290,2013-09-30 09:36:00
5:57 AM,60.8,60.8,100,29.97,4.0,NW,4.6,-,N/A,,Overcast,310,2013-09-30 09:57:00
6:12 AM,60.8,60.8,100,29.97,5.0,WNW,4.6,-,N/A,,Overcast,300,2013-09-30 10:12:00
6:32 AM,60.8,60.8,100,29.98,7.0,Calm,Calm,-,N/A,,Overcast,0,2013-09-30 10:32:00
6:52 AM,59.0,59.0,100,29.98,5.0,Calm,Calm,-,N/A,,Mostly Cloudy,0,2013-09-30 10:52:00
7:12 AM,57.2,57.2,100,29.99,0.5,Calm,Calm,-,N/A,Fog,Fog,0,2013-09-30 11:12:00
7:32 AM,57.2,57.2,100,30.00,1.2,Calm,Calm,-,N/A,,Overcast,0,2013-09-30 11:32:00
7:52 AM,59.0,57.2,94,30.00,5.0,Calm,Calm,-,N/A,,Overcast,0,2013-09-30 11:52:00
8:12 AM,60.8,59.0,94,30.01,5.0,Calm,Calm,-,N/A,,Overcast,0,2013-09-30 12:12:00
8:32 AM,60.8,59.0,94,30.01,5.0,Calm,Calm,-,N/A,,Overcast,0,2013-09-30 12:32:00
8:53 AM,60.8,60.8,100,30.01,5.0,Calm,Calm,-,N/A,,Overcast,0,2013-09-30 12:53:00
9:13 AM,60.8,60.8,100,30.01,5.0,Calm,Calm,-,N/A,,Overcast,0,2013-09-30 13:13:00
9:33 AM,60.8,60.8,100,30.02,7.0,WNW,4.6,-,N/A,,Overcast,300,2013-09-30 13:33:00
9:53 AM,62.6,60.8,94,30.01,10.0,Calm,Calm,-,N/A,,Overcast,0,2013-09-30 13:53:00
10:13 AM,62.6,60.8,94,30.01,10.0,WSW,3.5,-,N/A,,Overcast,250,2013-09-30 14:13:00
10:33 AM,64.4,60.8,88,30.01,10.0,WSW,5.8,-,N/A,,Overcast,250,2013-09-30 14:33:00
10:53 AM,64.4,59.0,83,30.01,10.0,West,4.6,-,N/A,,Mostly Cloudy,280,2013-09-30 14:53:00
11:13 AM,66.2,59.0,78,30.00,10.0,West,5.8,-,N/A,,Scattered Clouds,260,2013-09-30 15:13:00
11:33 AM,64.4,59.0,83,30.00,10.0,West,5.8,-,N/A,,Scattered Clouds,270,2013-09-30 15:33:00
11:53 AM,68.0,59.0,73,30.00,10.0,SW,4.6,-,N/A,,Clear,220,2013-09-30 15:53:00
12:14 PM,68.0,57.2,68,29.99,10.0,West,6.9,-,N/A,,Scattered Clouds,260,2013-09-30 16:14:00
12:34 PM,69.8,57.2,64,29.99,10.0,WSW,6.9,-,N/A,,Scattered Clouds,240,2013-09-30 16:34:00
12:54 PM,69.8,57.2,64,29.98,10.0,SSW,8.1,-,N/A,,Scattered Clouds,210,2013-09-30 16:54:00
1:14 PM,69.8,55.4,60,29.98,10.0,West,8.1,-,N/A,,Scattered Clouds,260,2013-09-30 17:14:00
1:34 PM,71.6,53.6,53,29.98,10.0,West,8.1,-,N/A,,Scattered Clouds,260,2013-09-30 17:34:00
1:54 PM,71.6,53.6,53,29.97,10.0,WSW,10.4,-,N/A,,Clear,250,2013-09-30 17:54:00
2:14 PM,71.6,53.6,53,29.97,10.0,West,6.9,16.1,N/A,,Scattered Clouds,260,2013-09-30 18:14:00
2:34 PM,71.6,55.4,57,29.96,10.0,West,6.9,-,N/A,,Mostly Cloudy,280,2013-09-30 18:34:00
2:54 PM,71.6,55.4,57,29.96,10.0,SW,10.4,-,N/A,,Mostly Cloudy,230,2013-09-30 18:54:00
3:15 PM,69.8,55.4,60,29.95,10.0,WSW,8.1,-,N/A,,Mostly Cloudy,250,2013-09-30 19:15:00
3:35 PM,71.6,55.4,57,29.95,10.0,WSW,6.9,-,N/A,,Mostly Cloudy,240,2013-09-30 19:35:00
3:55 PM,73.4,55.4,53,29.94,10.0,WSW,9.2,-,N/A,,Mostly Cloudy,250,2013-09-30 19:55:00
4:15 PM,71.6,55.4,57,29.94,10.0,SW,5.8,-,N/A,,Mostly Cloudy,230,2013-09-30 20:15:00
4:35 PM,71.6,57.2,60,29.93,10.0,WSW,4.6,-,N/A,,Overcast,250,2013-09-30 20:35:00
4:55 PM,71.6,55.4,57,29.93,10.0,WSW,5.8,-,N/A,,Mostly Cloudy,250,2013-09-30 20:55:00
5:15 PM,71.6,55.4,57,29.93,10.0,SW,8.1,-,N/A,,Scattered Clouds,220,2013-09-30 21:15:00
5:35 PM,71.6,57.2,60,29.93,10.0,SW,5.8,-,N/A,,Clear,220,2013-09-30 21:35:00
5:55 PM,71.6,57.2,60,29.94,10.0,WSW,4.6,-,N/A,,Scattered Clouds,250,2013-09-30 21:55:00
6:15 PM,69.8,57.2,64,29.94,10.0,WSW,3.5,-,N/A,,Scattered Clouds,250,2013-09-30 22:15:00
6:35 PM,71.6,57.2,60,29.94,10.0,Calm,Calm,-,N/A,,Scattered Clouds,0,2013-09-30 22:35:00
6:56 PM,68.0,59.0,73,29.94,10.0,Calm,Calm,-,N/A,,Scattered Clouds,0,2013-09-30 22:56:00
7:16 PM,64.4,60.8,88,29.94,10.0,Calm,Calm,-,N/A,,Clear,0,2013-09-30 23:16:00
7:36 PM,62.6,60.8,94,29.94,10.0,Calm,Calm,-,N/A,,Clear,0,2013-09-30 23:36:00
7:56 PM,62.6,59.0,88,29.95,10.0,Calm,Calm,-,N/A,,Clear,0,2013-09-30 23:56:00
8:16 PM,62.6,57.2,82,29.95,10.0,SSE,5.8,-,N/A,,Clear,150,2013-10-01 00:16:00
8:36 PM,62.6,59.0,88,29.96,10.0,SSE,3.5,-,N/A,,Clear,160,2013-10-01 00:36:00
8:56 PM,62.6,60.8,94,29.96,10.0,SSE,3.5,-,N/A,,Clear,150,2013-10-01 00:56:00
9:12 PM,62.6,60.8,94,29.96,10.0,Calm,Calm,-,N/A,,Clear,0,2013-10-01 01:12:00
9:32 PM,60.8,59.0,94,29.96,7.0,Calm,Calm,-,N/A,,Clear,0,2013-10-01 01:32:00
9:52 PM,60.8,60.8,100,29.96,7.0,Calm,Calm,-,N/A,,Clear,0,2013-10-01 01:52:00
10:12 PM,60.8,57.2,88,29.96,7.0,Calm,Calm,-,N/A,,Clear,0,2013-10-01 02:12:00
10:32 PM,60.8,59.0,94,29.96,5.0,Calm,Calm,-,N/A,,Clear,0,2013-10-01 02:32:00
10:52 PM,59.0,57.2,94,29.96,4.0,Calm,Calm,-,N/A,,Clear,0,2013-10-01 02:52:00
11:12 PM,60.8,60.8,100,29.96,2.0,Calm,Calm,-,N/A,,Clear,0,2013-10-01 03:12:00
11:32 PM,59.0,57.2,94,29.96,0.2,Calm,Calm,-,N/A,Fog,Fog,0,2013-10-01 03:32:00
11:52 PM,59.0,59.0,100,29.96,1.8,South,3.5,-,N/A,,Mostly Cloudy,180,2013-10-01 03:52:00